UAE5QL OMDB-FSIA

Flight info

Callsign UAE5QL
Flight time N/A
Altitude 39000
Route ANVIX R401 GIDIS G783 UKRAG L710 DEDSO/N0482F400 R401 SUHIL UM314 IMTIP DCT EPNOR T144 ROUTY ROUTY1D
Aircraft A359/H-SDE2E3GHIJ3J4J5LM1ORWXY/LB1D1

Departure

Time N/A
Airport Dubai International Airport (OMDB)

Arrival

Time 2026-04-21 14:15
Airport Seychelles International Airport (FSIA)
Time Latitude Longitude Altitude Speed Heading
2026-04-21 13:31 0.19376 55.32605 39843 ft 498 kts 179°
2026-04-21 13:31 0.15896 55.32694 39835 ft 498 kts 179°
2026-04-21 13:31 0.09002 55.32872 39846 ft 498 kts 179°
2026-04-21 13:32 0.02054 55.33050 39839 ft 498 kts 179°
2026-04-21 13:32 -0.04847 55.33228 39833 ft 498 kts 179°
2026-04-21 13:33 -0.11792 55.33407 39840 ft 498 kts 179°
2026-04-21 13:33 -0.18726 55.33585 39830 ft 498 kts 179°
2026-04-21 13:34 -0.25634 55.33763 39838 ft 498 kts 179°
2026-04-21 13:34 -0.32586 55.33942 39839 ft 498 kts 179°
2026-04-21 13:35 -0.39538 55.34120 39834 ft 499 kts 179°
2026-04-21 13:35 -0.46453 55.34298 39838 ft 499 kts 179°
2026-04-21 13:36 -0.53415 55.34477 39836 ft 499 kts 179°
2026-04-21 13:36 -0.60309 55.34655 39830 ft 499 kts 179°
2026-04-21 13:37 -0.67283 55.34834 39841 ft 500 kts 179°
2026-04-21 13:37 -0.74210 55.35012 39831 ft 500 kts 179°
2026-04-21 13:38 -0.81197 55.35192 39832 ft 500 kts 179°
2026-04-21 13:38 -0.88129 55.35371 39832 ft 500 kts 179°
2026-04-21 13:39 -0.95065 55.35549 39838 ft 500 kts 179°
2026-04-21 13:39 -1.02044 55.35729 39833 ft 501 kts 179°
2026-04-21 13:40 -1.09012 55.35908 39840 ft 501 kts 179°
2026-04-21 13:40 -1.15992 55.36088 39843 ft 501 kts 179°
2026-04-21 13:41 -1.22938 55.36266 39836 ft 501 kts 179°
2026-04-21 13:41 -1.29911 55.36446 39837 ft 499 kts 179°
2026-04-21 13:42 -1.36847 55.36625 39839 ft 497 kts 179°
2026-04-21 13:42 -1.43742 55.36802 39840 ft 497 kts 179°
2026-04-21 13:43 -1.50660 55.36980 39843 ft 497 kts 179°
2026-04-21 13:43 -1.57588 55.37158 39845 ft 497 kts 179°
2026-04-21 13:44 -1.64465 55.37335 39851 ft 497 kts 179°
2026-04-21 13:44 -1.71390 55.37514 39847 ft 497 kts 179°
2026-04-21 13:45 -1.78325 55.37692 39848 ft 497 kts 179°
2026-04-21 13:45 -1.85216 55.37870 39845 ft 497 kts 179°
2026-04-21 13:46 -1.92157 55.38049 39845 ft 499 kts 179°
2026-04-21 13:46 -1.99097 55.38227 39854 ft 501 kts 179°
2026-04-21 13:47 -2.06054 55.38406 39853 ft 501 kts 179°
2026-04-21 13:47 -2.13043 55.38587 39849 ft 501 kts 179°
2026-04-21 13:48 -2.20012 55.38787 39845 ft 502 kts 179°
2026-04-21 13:48 -2.25814 55.39018 39850 ft 500 kts 179°
2026-04-21 13:49 -2.32726 55.39289 39444 ft 497 kts 179°
2026-04-21 13:49 -2.36197 55.39423 38669 ft 500 kts 179°
2026-04-21 13:49 -2.39692 55.39556 37865 ft 503 kts 179°
2026-04-21 13:50 -2.43200 55.39691 37205 ft 502 kts 179°
2026-04-21 13:50 -2.46694 55.39824 36559 ft 501 kts 179°
2026-04-21 13:50 -2.50132 55.39956 35905 ft 500 kts 179°
2026-04-21 13:50 -2.53603 55.40088 35302 ft 499 kts 179°
2026-04-21 13:51 -2.57078 55.40221 34799 ft 496 kts 179°
2026-04-21 13:51 -2.60512 55.40352 34287 ft 493 kts 179°
2026-04-21 13:51 -2.63945 55.40483 33765 ft 490 kts 179°
2026-04-21 13:51 -2.67315 55.40611 33215 ft 487 kts 179°
2026-04-21 13:52 -2.70708 55.40740 32696 ft 484 kts 179°
2026-04-21 13:52 -2.74071 55.40869 32189 ft 480 kts 179°
2026-04-21 13:52 -2.77365 55.40994 31698 ft 477 kts 179°
2026-04-21 13:52 -2.80669 55.41120 31201 ft 474 kts 179°
2026-04-21 13:53 -2.83976 55.41246 30713 ft 471 kts 179°
2026-04-21 13:53 -2.87251 55.41371 30218 ft 468 kts 179°
2026-04-21 13:53 -2.90499 55.41495 29708 ft 466 kts 179°
2026-04-21 13:53 -2.93736 55.41618 29175 ft 462 kts 179°
2026-04-21 13:54 -2.96933 55.41740 28695 ft 458 kts 179°
2026-04-21 13:54 -3.00071 55.41859 28215 ft 454 kts 179°
2026-04-21 13:54 -3.03225 55.41980 27734 ft 450 kts 179°
2026-04-21 13:54 -3.06346 55.42099 27254 ft 446 kts 179°
2026-04-21 13:55 -3.09406 55.42215 26782 ft 442 kts 179°
2026-04-21 13:55 -3.12480 55.42332 26305 ft 439 kts 179°
2026-04-21 13:55 -3.15530 55.42449 25832 ft 435 kts 179°
2026-04-21 13:55 -3.18558 55.42564 25348 ft 432 kts 179°
2026-04-21 13:56 -3.21522 55.42677 24882 ft 430 kts 179°
2026-04-21 13:56 -3.24521 55.42791 24403 ft 427 kts 179°
2026-04-21 13:56 -3.27489 55.42904 23918 ft 424 kts 179°
2026-04-21 13:56 -3.30402 55.43015 23439 ft 422 kts 179°
2026-04-21 13:57 -3.33337 55.43127 22887 ft 419 kts 179°
2026-04-21 13:57 -3.36236 55.43238 22401 ft 415 kts 178°
2026-04-21 13:57 -3.39080 55.43346 21922 ft 410 kts 178°
2026-04-21 13:57 -3.41919 55.43455 21433 ft 406 kts 178°
2026-04-21 13:58 -3.44740 55.43562 20973 ft 402 kts 178°
2026-04-21 13:58 -3.47502 55.43668 20492 ft 398 kts 178°
2026-04-21 13:58 -3.50258 55.43773 20014 ft 395 kts 178°
2026-04-21 13:58 -3.53001 55.43877 19545 ft 392 kts 178°
2026-04-21 13:59 -3.55711 55.43981 19076 ft 388 kts 178°
2026-04-21 13:59 -3.58408 55.44083 18609 ft 386 kts 178°
2026-04-21 13:59 -3.61082 55.44185 18137 ft 383 kts 178°
2026-04-21 13:59 -3.63739 55.44287 17621 ft 380 kts 178°
2026-04-21 14:00 -3.66341 55.44387 17152 ft 375 kts 178°
2026-04-21 14:00 -3.68946 55.44487 16702 ft 371 kts 178°
2026-04-21 14:00 -3.71519 55.44585 16230 ft 367 kts 178°
2026-04-21 14:00 -3.74042 55.44681 15788 ft 363 kts 178°
2026-04-21 14:01 -3.76574 55.44778 15344 ft 360 kts 178°
2026-04-21 14:01 -3.79044 55.44872 14890 ft 357 kts 178°
2026-04-21 14:01 -3.81516 55.44967 14452 ft 354 kts 178°
2026-04-21 14:01 -3.83974 55.45061 14011 ft 351 kts 178°
2026-04-21 14:02 -3.86411 55.45154 13557 ft 349 kts 178°
2026-04-21 14:02 -3.88807 55.45245 13092 ft 345 kts 178°
2026-04-21 14:02 -3.91193 55.45336 12652 ft 341 kts 178°
2026-04-21 14:03 -3.95861 55.45514 11793 ft 333 kts 178°
2026-04-21 14:03 -3.98170 55.45603 11372 ft 329 kts 178°
2026-04-21 14:03 -4.00451 55.45690 10955 ft 325 kts 178°
2026-04-21 14:03 -4.02702 55.45776 10532 ft 322 kts 178°
2026-04-21 14:04 -4.04914 55.45861 10358 ft 310 kts 178°
2026-04-21 14:04 -4.07005 55.45941 10229 ft 297 kts 178°
2026-04-21 14:04 -4.09041 55.46018 10113 ft 285 kts 178°
2026-04-21 14:04 -4.11010 55.46093 9825 ft 281 kts 178°
2026-04-21 14:05 -4.12990 55.46168 9533 ft 290 kts 178°
2026-04-21 14:05 -4.15031 55.46247 9380 ft 295 kts 178°
2026-04-21 14:05 -4.17084 55.46325 9072 ft 295 kts 178°
2026-04-21 14:05 -4.19109 55.46386 8594 ft 295 kts 180°
2026-04-21 14:06 -4.21168 55.46380 8110 ft 295 kts 181°
2026-04-21 14:06 -4.23219 55.46362 7727 ft 292 kts 180°
2026-04-21 14:06 -4.25244 55.46349 7391 ft 288 kts 180°
2026-04-21 14:06 -4.27221 55.46342 7049 ft 286 kts 180°
2026-04-21 14:07 -4.29212 55.46336 6715 ft 285 kts 180°
2026-04-21 14:07 -4.31194 55.46332 6382 ft 284 kts 180°
2026-04-21 14:07 -4.33173 55.46329 6042 ft 283 kts 180°
2026-04-21 14:07 -4.35144 55.46327 5698 ft 281 kts 180°
2026-04-21 14:08 -4.37077 55.46325 5387 ft 281 kts 180°
2026-04-21 14:08 -4.39035 55.46323 5051 ft 279 kts 180°
2026-04-21 14:08 -4.40975 55.46238 4705 ft 278 kts 188°
2026-04-21 14:08 -4.42756 55.45533 4472 ft 276 kts 215°
2026-04-21 14:09 -4.44076 55.44165 4226 ft 270 kts 233°
2026-04-21 14:09 -4.45124 55.42682 4066 ft 258 kts 236°
2026-04-21 14:09 -4.46133 55.41216 3939 ft 246 kts 236°
2026-04-21 14:09 -4.47133 55.39888 3816 ft 235 kts 225°
2026-04-21 14:10 -4.48492 55.39132 3725 ft 219 kts 188°
2026-04-21 14:10 -4.49921 55.39332 3644 ft 201 kts 153°
2026-04-21 14:10 -4.51058 55.40024 3557 ft 186 kts 144°
2026-04-21 14:10 -4.52079 55.40750 3400 ft 174 kts 143°
2026-04-21 14:11 -4.53045 55.41442 3205 ft 167 kts 143°
2026-04-21 14:11 -4.53981 55.42111 3012 ft 161 kts 143°
2026-04-21 14:11 -4.54882 55.42748 2855 ft 155 kts 144°
2026-04-21 14:11 -4.55753 55.43363 2634 ft 151 kts 143°
2026-04-21 14:12 -4.56597 55.43956 2460 ft 142 kts 143°
2026-04-21 14:12 -4.57396 55.44514 2348 ft 141 kts 143°
2026-04-21 14:12 -4.58206 55.45075 2167 ft 140 kts 143°
2026-04-21 14:12 -4.59006 55.45636 1957 ft 141 kts 143°
2026-04-21 14:13 -4.59819 55.46198 1774 ft 141 kts 146°
2026-04-21 14:13 -4.60633 55.46646 1537 ft 145 kts 154°
2026-04-21 14:13 -4.61578 55.47028 1201 ft 146 kts 158°
2026-04-21 14:13 -4.62516 55.47379 961 ft 141 kts 158°
2026-04-21 14:14 -4.63425 55.47722 773 ft 138 kts 156°
2026-04-21 14:14 -4.64287 55.48126 615 ft 138 kts 144°
2026-04-21 14:14 -4.64987 55.48776 453 ft 137 kts 129°
2026-04-21 14:14 -4.65597 55.49529 389 ft 139 kts 124°
2026-04-21 14:15 -4.66156 55.50314 254 ft 138 kts 121°
2026-04-21 14:15 -4.66699 55.51109 89 ft 137 kts 123°
2026-04-21 14:15 -4.67215 55.51856 29 ft 118 kts 124°
2026-04-21 14:15 -4.67531 55.52317 28 ft 44 kts 125°
2026-04-21 14:16 -4.67699 55.52559 26 ft 41 kts 125°
2026-04-21 14:16 -4.67855 55.52786 27 ft 38 kts 124°
2026-04-21 14:16 -4.67999 55.52999 29 ft 36 kts 124°
2026-04-21 14:16 -4.68088 55.53121 29 ft 17 kts 135°
2026-04-21 14:17 -4.68206 55.53166 28 ft 20 kts 168°
2026-04-21 14:17 -4.68256 55.53183 28 ft 0 kts 141°
2026-04-21 14:17 -4.68262 55.53217 28 ft 10 kts 83°
2026-04-21 14:17 -4.68185 55.53257 28 ft 17 kts 336°
2026-04-21 14:18 -4.68090 55.53129 29 ft 29 kts 304°
2026-04-21 14:18 -4.67954 55.52932 28 ft 40 kts 304°
2026-04-21 14:18 -4.67783 55.52684 27 ft 44 kts 305°
2026-04-21 14:18 -4.67607 55.52428 28 ft 44 kts 304°
2026-04-21 14:19 -4.67434 55.52177 29 ft 44 kts 304°
2026-04-21 14:19 -4.67257 55.51921 29 ft 44 kts 304°
2026-04-21 14:19 -4.67083 55.51665 28 ft 42 kts 304°
2026-04-21 14:19 -4.66932 55.51449 28 ft 31 kts 304°
2026-04-21 14:20 -4.66944 55.51337 27 ft 17 kts 216°
2026-04-21 14:20 -4.67027 55.51263 27 ft 15 kts 222°
2026-04-21 14:20 -4.67045 55.51250 27 ft 4 kts 216°
2026-04-21 14:20 -4.67073 55.51231 27 ft 0 kts 214°
2026-04-21 14:21 -4.67075 55.51229 27 ft 0 kts 214°
2026-04-21 14:56 -4.67078 55.51227 27 ft 0 kts 215°